QPF
0.00 0.00 0.00 0.00 0.00 0.00 0.00 0.00 0.00 0.00 0.01 0.03 0.02 0.01 0.01 0.00 0.00 0.00 0.00 0.00 0.00 0.00 0.00 0.00 0.00 0.00 0.00 0.00 0.00 0.00 0.00 0.00 0.00 0.00 0.00 0.00 0.00 0.00 0.00 0.00 0.00 0.00 0.00 0.00 0.00 0.00 0.00
0.00 0.00 0.00 0.00 0.00 0.00 0.00 0.00 0.00 0.00 0.00 0.02 0.02 0.01 0.00 0.00 0.00 0.00 0.00 0.00 0.00 0.00 0.00 0.01 0.00 0.00 0.00 0.00 0.00 0.00 0.00 0.00 0.00 0.00 0.00 0.00 0.00 0.00 0.01 0.00 0.01 0.00 0.00 0.00 0.00 0.01 0.01
0.00 0.00 0.00 0.00 0.00 0.00 0.00 0.00 0.00 0.00 0.00 0.01 0.02 0.01 0.01 0.00 0.00 0.00 0.01 0.00 0.00 0.00 0.00 0.01 0.01 0.00 0.00 0.00 0.00 0.00 0.00 0.00 0.00 0.00 0.00 0.00 0.00 0.01 0.02 0.02 0.00 0.00 0.01 0.00 0.00 0.00 0.01
0.00 0.00 0.00 0.00 0.00 0.00 0.00 0.00 0.00 0.00 0.00 0.00 0.01 0.02 0.01 0.00 0.00 0.01 0.00 0.00 0.00 0.00 0.00 0.01 0.00 0.00 0.00 0.00 0.00 0.00 0.00 0.00 0.00 0.00 0.00 0.00 0.01 0.02 0.05 0.03 0.08 0.03 0.01 0.02 0.00 0.00 0.01
0.00 0.00 0.00 0.00 0.00 0.00 0.00 0.00 0.00 0.00 0.00 0.00 0.01 0.01 0.01 0.00 0.00 0.00 0.00 0.00 0.00 0.01 0.00 0.00 0.00 0.00 0.00 0.00 0.00 0.00 0.00 0.00 0.00 0.00 0.00 0.02 0.01 0.01 0.03 0.03 0.04 0.06 0.01 0.01 0.01 0.01 0.01
0.01 0.01 0.01 0.00 0.00 0.00 0.00 0.00 0.00 0.00 0.00 0.00 0.01 0.01 0.01 0.00 0.01 0.00 0.00 0.00 0.00 0.00 0.00 0.00 0.00 0.00 0.00 0.00 0.00 0.00 0.00 0.00 0.00 0.00 0.00 0.02 0.00 0.01 0.01 0.01 0.01 0.02 0.01 0.01 0.02 0.02 0.01
0.02 0.02 0.01 0.01 0.00 0.00 0.00 0.00 0.00 0.00 0.00 0.00 0.01 0.02 0.00 0.00 0.00 0.00 0.00 0.00 0.00 0.00 0.00 0.00 0.00 0.00 0.00 0.00 0.00 0.00 0.00 0.00 0.00 0.00 0.00 0.00 0.00 0.00 0.00 0.00 0.01 0.02 0.00 0.01 0.01 0.04 0.00
0.02 0.02 0.02 0.01 0.00 0.00 0.00 0.00 0.00 0.00 0.00 0.00 0.01 0.01 0.00 0.00 0.00 0.00 0.00 0.00 0.00 0.00 0.00 0.00 0.00 0.00 0.00 0.00 0.00 0.00 0.00 0.00 0.00 0.00 0.00 0.01 0.00 0.00 0.00 0.00 0.00 0.01 0.01 0.06 0.05 0.02 0.00
0.01 0.02 0.01 0.00 0.01 0.01 0.00 0.00 0.00 0.00 0.00 0.00 0.01 0.02 0.00 0.01 0.01 0.01 0.00 0.00 0.00 0.00 0.00 0.00 0.00 0.00 0.00 0.00 0.00 0.00 0.00 0.00 0.00 0.00 0.00 0.00 0.00 0.00 0.00 0.01 0.01 0.00 0.01 0.03 0.02 0.02 0.00
0.03 0.03 0.02 0.02 0.02 0.01 0.00 0.00 0.00 0.00 0.00 0.00 0.01 0.02 0.00 0.01 0.01 0.00 0.00 0.00 0.00 0.00 0.00 0.00 0.00 0.00 0.00 0.00 0.00 0.00 0.00 0.00 0.00 0.00 0.00 0.00 0.00 0.01 0.00 0.01 0.01 0.00 0.03 0.10 0.04 0.02 0.01
0.04 0.04 0.03 0.03 0.03 0.02 0.03 0.02 0.00 0.01 0.00 0.00 0.01 0.02 0.01 0.00 0.00 0.00 0.00 0.00 0.00 0.00 0.00 0.00 0.00 0.00 0.00 0.00 0.00 0.00 0.00 0.00 0.00 0.00 0.00 0.00 0.01 0.00 0.01 0.01 0.00 0.00 0.01 0.08 0.06 0.01 0.00
0.05 0.05 0.05 0.04 0.03 0.03 0.03 0.01 0.00 0.01 0.00 0.00 0.01 0.02 0.01 0.01 0.00 0.00 0.00 0.00 0.00 0.00 0.00 0.00 0.00 0.00 0.00 0.00 0.00 0.00 0.00 0.00 0.00 0.00 0.00 0.00 0.00 0.02 0.02 0.03 0.02 0.01 0.02 0.05 0.02 0.00 0.00
0.06 0.05 0.03 0.03 0.04 0.05 0.05 0.02 0.01 0.00 0.00 0.01 0.01 0.01 0.01 0.00 0.00 0.00 0.00 0.00 0.00 0.00 0.00 0.00 0.00 0.00 0.00 0.00 0.00 0.00 0.00 0.00 0.00 0.00 0.00 0.01 0.02 0.03 0.05 0.05 0.06 0.05 0.01 0.01 0.00 0.00 0.00
0.05 0.04 0.05 0.04 0.05 0.07 0.07 0.03 0.02 0.01 0.01 0.02 0.02 0.02 0.01 0.00 0.00 0.00 0.00 0.00 0.00 0.00 0.00 0.00 0.00 0.00 0.00 0.00 0.00 0.00 0.00 0.00 0.00 0.00 0.00 0.00 0.02 0.02 0.04 0.01 0.01 0.01 0.00 0.00 0.00 0.00 0.00
0.05 0.04 0.04 0.04 0.07 0.05 0.06 0.04 0.02 0.01 0.01 0.02 0.03 0.01 0.00 0.00 0.00 0.00 0.00 0.00 0.00 0.00 0.00 0.00 0.00 0.00 0.00 0.00 0.00 0.00 0.00 0.00 0.00 0.00 0.00 0.00 0.00 0.00 0.00 0.00 0.00 0.00 0.00 0.00 0.00 0.00 0.00
0.04 0.04 0.04 0.02 0.03 0.03 0.03 0.02 0.01 0.01 0.02 0.03 0.00 0.01 0.00 0.00 0.00 0.00 0.00 0.00 0.00 0.00 0.00 0.00 0.00 0.00 0.00 0.00 0.00 0.00 0.00 0.00 0.00 0.00 0.00 0.00 0.00 0.00 0.00 0.00 0.00 0.00 0.00 0.00 0.00 0.00 0.00
0.02 0.03 0.01 0.01 0.01 0.01 0.00 0.01 0.01 0.03 0.01 0.01 0.00 0.00 0.00 0.00 0.00 0.00 0.00 0.00 0.00 0.00 0.00 0.00 0.00 0.00 0.00 0.00 0.00 0.00 0.00 0.00 0.00 0.00 0.00 0.00 0.00 0.00 0.00 0.00 0.00 0.00 0.00 0.00 0.00 0.00 0.00
0.02 0.03 0.01 0.00 0.01 0.00 0.00 0.01 0.01 0.01 0.00 0.00 0.00 0.00 0.00 0.00 0.00 0.00 0.00 0.00 0.00 0.00 0.00 0.00 0.00 0.00 0.00 0.00 0.00 0.00 0.00 0.00 0.00 0.00 0.00 0.00 0.00 0.00 0.00 0.00 0.00 0.00 0.00 0.00 0.00 0.00 0.00
0.01 0.01 0.01 0.00 0.00 0.01 0.01 0.01 0.00 0.00 0.00 0.00 0.00 0.00 0.00 0.00 0.00 0.00 0.00 0.00 0.00 0.00 0.00 0.00 0.00 0.00 0.00 0.00 0.00 0.00 0.00 0.00 0.00 0.00 0.00 0.00 0.00 0.00 0.00 0.00 0.00 0.00 0.00 0.00 0.00 0.00 0.00
0.01 0.01 0.00 0.00 0.01 0.00 0.00 0.00 0.00 0.00 0.00 0.00 0.00 0.00 0.00 0.01 0.00 0.00 0.00 0.00 0.00 0.00 0.00 0.00 0.00 0.00 0.00 0.00 0.00 0.00 0.00 0.00 0.00 0.00 0.00 0.00 0.00 0.00 0.00 0.00 0.00 0.00 0.00 0.00 0.00 0.00 0.00
0.01 0.00 0.01 0.02 0.00 0.00 0.00 0.00 0.00 0.00 0.00 0.00 0.00 0.00 0.00 0.00 0.00 0.00 0.00 0.00 0.00 0.00 0.00 0.00 0.00 0.00 0.00 0.00 0.00 0.00 0.00 0.00 0.00 0.00 0.00 0.00 0.00 0.00 0.00 0.00 0.00 0.00 0.00 0.00 0.00 0.00 0.00
0.00 0.01 0.01 0.01 0.00 0.00 0.00 0.00 0.01 0.00 0.00 0.00 0.00 0.00 0.00 0.00 0.00 0.00 0.00 0.00 0.00 0.00 0.00 0.00 0.00 0.00 0.00 0.00 0.00 0.00 0.00 0.00 0.00 0.00 0.00 0.00 0.00 0.00 0.00 0.00 0.00 0.00 0.00 0.00 0.00 0.00 0.00
0.00 0.01 0.01 0.01 0.01 0.00 0.01 0.01 0.01 0.00 0.00 0.00 0.00 0.00 0.00 0.00 0.00 0.00 0.00 0.00 0.00 0.00 0.00 0.00 0.00 0.00 0.00 0.00 0.00 0.00 0.00 0.00 0.00 0.00 0.00 0.00 0.00 0.00 0.00 0.00 0.00 0.00 0.00 0.00 0.00 0.00 0.00
0.00 0.00 0.01 0.01 0.01 0.01 0.01 0.01 0.00 0.00 0.00 0.00 0.00 0.00 0.00 0.00 0.00 0.00 0.00 0.00 0.00 0.00 0.00 0.00 0.00 0.00 0.00 0.00 0.00 0.00 0.00 0.00 0.00 0.00 0.00 0.00 0.00 0.00 0.00 0.00 0.00 0.00 0.00 0.00 0.00 0.00 0.00
0.00 0.00 0.00 0.02 0.02 0.01 0.01 0.00 0.00 0.00 0.00 0.00 0.00 0.00 0.00 0.00 0.00 0.00 0.00 0.00 0.00 0.00 0.00 0.00 0.00 0.00 0.00 0.00 0.00 0.00 0.00 0.00 0.00 0.00 0.00 0.00 0.00 0.00 0.00 0.00 0.00 0.00 0.00 0.00 0.00 0.00 0.00
0.00 0.00 0.00 0.00 0.02 0.00 0.00 0.00 0.00 0.00 0.00 0.00 0.00 0.00 0.00 0.00 0.00 0.00 0.00 0.00 0.00 0.00 0.00 0.00 0.00 0.00 0.00 0.00 0.00 0.00 0.00 0.00 0.00 0.00 0.00 0.00 0.00 0.00 0.00 0.00 0.00 0.00 0.00 0.00 0.00 0.00 0.00
0.00 0.00 0.00 0.00 0.01 0.00 0.00 0.00 0.00 0.00 0.00 0.00 0.00 0.00 0.00 0.00 0.00 0.00 0.00 0.00 0.00 0.00 0.00 0.00 0.00 0.00 0.00 0.00 0.00 0.00 0.00 0.00 0.00 0.00 0.00 0.00 0.00 0.00 0.00 0.00 0.00 0.00 0.00 0.00 0.00 0.00 0.00
0.00 0.00 0.00 0.01 0.01 0.00 0.00 0.00 0.00 0.00 0.00 0.00 0.00 0.00 0.00 0.00 0.00 0.00 0.00 0.00 0.00 0.00 0.00 0.00 0.00 0.00 0.00 0.00 0.00 0.00 0.00 0.00 0.00 0.00 0.00 0.00 0.00 0.00 0.00 0.00 0.00 0.00 0.00 0.00 0.00 0.00 0.00
0.00 0.00 0.00 0.00 0.00 0.00 0.00 0.00 0.00 0.00 0.00 0.00 0.00 0.00 0.00 0.00 0.00 0.00 0.00 0.00 0.00 0.00 0.00 0.00 0.00 0.00 0.00 0.00 0.00 0.00 0.00 0.00 0.00 0.00 0.00 0.00 0.00 0.00 0.00 0.00 0.00 0.00 0.00 0.00 0.00 0.00 0.00
MSLP
1021.33 1020.79 1020.47 1020.00 1019.63 1019.27 1018.80 1018.35 1017.96 1017.61 1017.06 1016.07 1015.52 1015.07 1015.65 1015.87 1016.33 1016.39 1016.44 1016.63 1016.74 1016.91 1016.81 1016.72 1016.84 1017.04 1017.12 1017.15 1016.31 1015.49 1015.18 1015.45 1015.75 1016.12 1016.54 1016.93 1017.38 1017.77 1017.66 1017.20 1016.78 1016.02 1015.30 1014.68 1013.99 1013.58 1012.77
1021.12 1020.63 1020.06 1019.72 1019.35 1018.90 1018.48 1018.16 1017.73 1017.46 1016.85 1016.15 1015.72 1014.95 1014.95 1015.26 1015.78 1016.30 1016.30 1016.45 1016.44 1016.73 1016.64 1016.66 1016.86 1017.03 1017.17 1016.89 1015.48 1015.46 1015.47 1015.54 1015.89 1016.29 1016.53 1016.88 1017.20 1017.42 1017.49 1017.09 1016.78 1015.55 1015.22 1014.86 1014.32 1013.68 1013.21
1020.62 1020.39 1019.90 1019.51 1019.21 1018.81 1018.37 1018.01 1017.47 1017.01 1016.44 1016.04 1015.08 1014.80 1014.47 1015.09 1016.03 1016.27 1015.83 1016.36 1016.31 1016.59 1016.59 1016.55 1016.70 1016.95 1017.08 1016.08 1015.35 1015.41 1015.34 1015.50 1015.78 1016.11 1016.52 1016.63 1016.80 1017.32 1017.23 1016.76 1015.91 1015.73 1015.38 1014.51 1014.09 1013.72 1013.32
1020.40 1020.02 1019.59 1019.26 1018.79 1018.37 1017.95 1017.67 1017.00 1016.57 1016.08 1015.61 1014.78 1014.28 1014.39 1014.80 1015.46 1016.04 1015.94 1016.14 1016.33 1016.54 1016.45 1016.43 1016.62 1017.10 1016.44 1015.38 1015.25 1015.17 1015.26 1015.51 1015.75 1016.03 1016.24 1016.32 1016.63 1017.05 1017.23 1016.40 1015.55 1015.59 1015.58 1014.45 1013.17 1013.40 1013.33
1019.99 1019.49 1019.12 1018.73 1018.26 1017.87 1017.46 1017.04 1016.58 1016.20 1015.85 1015.41 1014.72 1014.07 1013.61 1014.51 1015.29 1016.09 1016.13 1016.08 1016.29 1016.38 1016.27 1016.36 1017.05 1016.85 1016.10 1015.10 1015.01 1014.90 1015.26 1015.59 1015.85 1016.08 1016.22 1016.37 1016.68 1016.61 1016.21 1016.02 1015.83 1014.85 1014.46 1014.03 1012.78 1012.80 1013.49
1019.10 1018.63 1018.33 1018.10 1017.77 1017.31 1016.96 1016.56 1016.19 1015.87 1015.51 1014.98 1014.53 1014.00 1012.88 1014.19 1015.13 1015.78 1016.42 1016.02 1016.22 1016.58 1016.63 1016.70 1016.80 1017.23 1015.85 1015.14 1014.92 1015.10 1015.27 1015.51 1015.70 1016.09 1016.38 1016.53 1016.49 1016.15 1015.94 1015.53 1014.74 1014.23 1014.14 1013.39 1012.63 1012.88 1013.19
1018.66 1018.34 1017.76 1017.38 1017.13 1016.73 1016.27 1016.00 1015.64 1015.39 1015.17 1014.84 1014.23 1014.13 1013.18 1013.86 1014.83 1015.64 1016.39 1016.34 1017.00 1017.14 1016.63 1016.18 1016.08 1015.81 1015.22 1014.98 1015.01 1015.14 1015.24 1015.48 1015.66 1015.99 1015.98 1016.09 1016.39 1015.43 1015.12 1014.93 1014.49 1013.89 1013.59 1012.89 1012.42 1012.45 1013.11
1018.13 1017.70 1017.32 1016.87 1016.44 1015.99 1015.62 1015.34 1015.12 1014.98 1014.78 1014.56 1014.26 1013.90 1013.44 1013.90 1014.70 1015.34 1016.51 1016.12 1015.52 1015.36 1015.87 1015.77 1015.68 1015.43 1015.04 1014.96 1015.19 1015.03 1015.23 1015.78 1015.84 1015.62 1015.58 1015.95 1015.13 1014.62 1014.41 1014.54 1014.32 1013.97 1013.42 1012.55 1012.43 1012.60 1012.78
1017.35 1017.05 1016.65 1016.10 1015.65 1015.30 1015.07 1014.82 1014.59 1014.47 1014.48 1014.24 1014.18 1013.50 1013.23 1013.85 1014.86 1015.06 1015.83 1015.52 1015.19 1015.16 1015.55 1015.48 1015.23 1014.88 1014.84 1015.13 1014.98 1014.84 1015.30 1015.57 1015.54 1015.43 1015.32 1015.13 1014.02 1013.84 1014.06 1013.87 1013.85 1013.59 1012.85 1012.04 1011.91 1012.35 1012.52
1016.86 1016.34 1015.87 1015.23 1014.75 1014.35 1014.51 1014.27 1014.12 1014.06 1013.98 1013.97 1013.82 1013.76 1013.36 1014.15 1015.31 1015.16 1015.43 1015.09 1015.18 1015.30 1015.82 1015.69 1015.07 1014.56 1014.82 1014.95 1014.90 1014.61 1014.97 1015.31 1015.19 1014.89 1014.46 1014.30 1013.73 1013.60 1013.73 1013.32 1013.25 1012.57 1011.88 1011.35 1011.51 1011.80 1012.43
1016.08 1015.55 1014.92 1014.39 1013.78 1013.58 1013.52 1013.50 1013.66 1013.55 1013.34 1013.25 1013.16 1013.24 1013.33 1014.00 1014.67 1014.93 1014.63 1014.72 1015.26 1015.49 1016.19 1015.75 1014.95 1014.35 1014.55 1014.99 1014.89 1014.35 1014.63 1014.85 1014.27 1014.06 1014.26 1013.92 1013.45 1013.42 1012.98 1012.43 1012.32 1011.85 1011.40 1011.29 1011.80 1011.65 1012.13
1015.14 1014.55 1013.91 1013.28 1012.73 1012.62 1012.53 1012.58 1012.92 1012.90 1012.63 1012.79 1012.82 1012.90 1013.18 1014.24 1014.46 1014.50 1014.37 1014.90 1015.54 1016.76 1016.34 1015.81 1014.98 1014.68 1014.50 1014.48 1014.44 1014.09 1014.25 1014.57 1013.67 1013.38 1013.73 1013.89 1013.69 1013.23 1012.49 1011.98 1011.91 1011.42 1011.78 1012.04 1012.02 1011.80 1012.15
1014.10 1013.53 1012.77 1012.17 1011.79 1011.61 1011.62 1011.85 1012.17 1012.33 1012.30 1012.50 1012.46 1011.73 1012.85 1013.65 1014.06 1014.35 1014.57 1015.65 1016.54 1016.72 1016.52 1015.83 1015.11 1014.55 1014.59 1014.42 1014.18 1014.11 1013.94 1014.00 1014.12 1013.81 1013.63 1013.55 1013.24 1012.68 1012.36 1011.92 1011.86 1011.61 1011.90 1012.46 1012.57 1012.62 1013.62
1013.18 1012.51 1011.59 1010.98 1010.57 1010.55 1010.69 1011.00 1011.28 1011.67 1011.91 1012.10 1011.94 1012.07 1013.04 1013.64 1013.92 1014.35 1015.18 1016.19 1016.46 1016.34 1015.99 1015.36 1014.86 1014.58 1014.81 1014.66 1014.22 1014.33 1014.25 1014.34 1014.09 1014.03 1013.96 1013.51 1013.14 1013.03 1012.52 1012.34 1012.26 1012.48 1012.53 1012.52 1013.12 1014.01 1014.52
1012.20 1011.27 1010.62 1010.03 1009.61 1009.57 1009.64 1010.05 1010.61 1011.29 1011.52 1011.74 1012.05 1012.39 1013.51 1014.04 1014.18 1014.55 1016.00 1016.42 1015.84 1015.66 1015.13 1015.14 1014.75 1014.81 1014.74 1014.71 1014.72 1014.34 1014.50 1014.56 1014.26 1013.97 1014.07 1013.85 1013.77 1013.34 1012.81 1012.57 1012.60 1012.19 1012.51 1012.62 1012.96 1014.00 1014.17
1011.18 1010.35 1009.81 1009.25 1008.76 1008.70 1008.77 1009.16 1009.74 1010.32 1010.68 1011.31 1011.76 1012.84 1013.84 1014.24 1014.54 1015.06 1016.30 1015.90 1015.56 1015.10 1014.65 1014.56 1014.56 1014.93 1014.81 1014.64 1014.57 1014.54 1014.79 1014.75 1014.46 1013.97 1013.79 1013.76 1013.83 1013.94 1013.22 1013.09 1012.48 1012.69 1012.83 1013.19 1013.29 1014.07 1014.87
1010.58 1009.93 1009.21 1008.61 1008.17 1008.06 1007.89 1007.83 1007.93 1008.29 1009.16 1010.92 1011.94 1013.35 1014.32 1014.50 1014.59 1015.79 1016.30 1015.73 1015.05 1014.49 1014.18 1013.98 1014.26 1014.55 1014.78 1014.81 1014.71 1014.89 1015.15 1014.71 1014.45 1014.11 1013.73 1013.89 1013.88 1014.34 1013.76 1014.12 1013.94 1013.58 1013.31 1013.52 1014.17 1014.91 1014.47
1010.13 1009.46 1008.60 1008.06 1007.65 1007.33 1006.73 1005.79 1005.57 1005.67 1007.51 1010.05 1011.91 1013.44 1014.62 1014.98 1015.32 1015.79 1016.02 1015.26 1014.42 1014.23 1013.91 1013.57 1013.54 1013.82 1014.29 1014.63 1014.76 1014.88 1015.09 1014.81 1014.14 1014.16 1014.23 1014.25 1014.50 1015.14 1014.97 1014.41 1014.06 1013.72 1013.77 1014.04 1014.35 1015.26 1015.68
1009.73 1008.87 1008.30 1007.59 1006.55 1005.59 1005.27 1004.46 1004.50 1005.64 1007.34 1009.36 1012.18 1013.68 1014.88 1014.89 1015.31 1015.78 1015.69 1014.77 1014.22 1013.99 1013.70 1013.39 1013.45 1013.58 1013.87 1014.38 1014.85 1014.88 1014.87 1014.57 1014.19 1014.11 1014.33 1014.48 1015.33 1015.86 1015.38 1015.00 1014.54 1014.58 1015.06 1015.39 1015.50 1015.95 1016.73
1009.67 1008.82 1007.71 1005.78 1004.18 1003.56 1004.19 1005.29 1006.25 1007.07 1008.03 1009.12 1011.99 1014.12 1015.27 1015.14 1015.25 1015.42 1015.15 1014.61 1014.16 1013.72 1013.56 1013.30 1013.39 1013.41 1013.77 1014.40 1014.58 1014.92 1014.91 1014.60 1014.37 1014.28 1014.38 1014.58 1016.01 1016.38 1016.67 1016.26 1015.77 1015.60 1015.80 1015.88 1016.03 1016.56 1016.65
1009.81 1008.85 1006.93 1004.39 1002.22 1002.71 1005.07 1006.62 1007.70 1008.29 1008.81 1009.37 1012.19 1013.70 1013.89 1014.57 1015.11 1015.09 1014.67 1014.30 1014.14 1013.90 1013.65 1013.50 1013.55 1013.66 1013.89 1014.43 1014.78 1015.03 1015.03 1014.84 1014.58 1014.62 1014.78 1015.20 1016.75 1017.10 1017.13 1016.66 1016.27 1016.21 1016.10 1016.18 1016.54 1016.72 1016.64
1009.86 1008.82 1006.94 1004.85 1004.53 1005.01 1006.78 1008.08 1008.65 1008.97 1009.21 1010.50 1012.57 1013.71 1014.21 1014.30 1014.61 1014.86 1014.54 1014.35 1014.18 1014.10 1013.85 1013.83 1013.79 1014.03 1014.13 1014.50 1014.74 1015.02 1015.15 1015.24 1015.43 1015.25 1015.65 1016.15 1017.37 1017.65 1017.94 1017.42 1016.90 1016.66 1016.54 1016.41 1016.60 1016.83 1017.01
1010.77 1009.59 1008.08 1007.52 1007.39 1007.98 1008.53 1009.10 1009.57 1009.84 1010.03 1011.73 1013.03 1013.34 1013.64 1014.79 1014.92 1014.80 1014.50 1014.45 1014.32 1014.13 1014.36 1014.11 1014.10 1014.38 1014.73 1014.97 1014.94 1015.17 1015.34 1015.57 1015.73 1016.03 1016.60 1017.03 1017.66 1018.33 1018.76 1017.92 1017.28 1017.14 1016.65 1016.54 1016.86 1017.10 1017.31
1011.79 1010.94 1009.96 1009.75 1009.66 1009.57 1009.97 1010.30 1010.43 1010.64 1010.77 1011.74 1013.07 1013.43 1014.25 1015.47 1015.37 1014.89 1014.80 1014.58 1014.53 1014.47 1014.46 1014.85 1014.58 1014.74 1015.42 1015.17 1015.46 1015.58 1015.86 1016.10 1016.24 1016.78 1016.82 1017.44 1018.04 1018.77 1019.14 1018.43 1018.06 1017.25 1016.70 1016.57 1016.84 1017.33 1017.39
1012.32 1011.88 1011.43 1011.16 1010.81 1010.72 1010.96 1010.93 1010.99 1011.29 1011.60 1012.25 1013.34 1013.69 1014.27 1015.37 1015.82 1015.73 1015.34 1015.15 1015.10 1015.08 1015.39 1015.45 1015.48 1015.58 1015.53 1015.70 1016.25 1016.56 1016.88 1016.96 1017.40 1017.50 1017.40 1017.49 1018.15 1019.10 1019.33 1019.16 1018.36 1017.32 1016.92 1016.98 1016.91 1018.21 1018.44
1012.74 1012.23 1011.74 1011.47 1011.09 1010.81 1011.25 1011.51 1011.49 1011.78 1011.87 1012.50 1013.58 1013.76 1013.89 1015.00 1016.80 1016.69 1016.06 1015.74 1015.84 1015.93 1016.21 1016.27 1015.95 1015.74 1015.86 1016.50 1016.92 1017.59 1017.87 1017.91 1018.09 1018.00 1017.83 1018.04 1018.22 1019.04 1019.72 1019.29 1018.40 1017.48 1017.01 1016.98 1017.18 1018.35 1018.74
1012.86 1012.33 1011.85 1011.22 1010.96 1010.83 1011.11 1011.76 1011.88 1012.03 1012.12 1012.76 1013.87 1013.85 1013.74 1015.75 1017.30 1017.15 1016.78 1016.42 1016.15 1016.36 1016.75 1016.80 1016.48 1016.30 1016.30 1017.16 1017.94 1018.30 1018.43 1018.39 1018.54 1018.56 1018.68 1018.98 1019.28 1019.61 1019.63 1019.25 1018.33 1017.46 1017.23 1017.27 1018.21 1019.36 1018.99
1012.59 1012.03 1011.28 1010.97 1011.07 1011.20 1011.33 1011.90 1012.24 1012.38 1012.29 1012.85 1014.28 1013.80 1013.96 1016.25 1017.63 1017.48 1017.24 1016.96 1016.73 1016.64 1017.01 1017.16 1017.23 1017.18 1017.47 1017.84 1018.55 1018.81 1018.92 1018.81 1018.83 1018.74 1018.73 1018.89 1019.39 1019.78 1019.70 1019.22 1018.43 1017.44 1017.75 1018.18 1018.77 1018.84 1019.33
1012.69 1011.70 1010.96 1010.86 1011.14 1011.46 1011.52 1011.82 1012.40 1012.50 1012.70 1012.81 1014.26 1014.28 1014.40 1015.59 1017.65 1017.67 1017.65 1017.55 1017.49 1017.24 1017.15 1017.54 1017.63 1017.47 1017.64 1018.23 1018.83 1019.04 1019.18 1019.38 1019.27 1019.23 1018.79 1018.92 1018.53 1018.73 1018.80 1018.11 1017.58 1017.58 1017.99 1018.47 1018.80 1019.27 1019.75
Thickness
5558 5556 5552 5552 5550 5547 5546 5547 5549 5549 5552 5560 5566 5570 5563 5559 5554 5551 5547 5542 5536 5531 5528 5523 5517 5509 5502 5491 5487 5489 5479 5467 5459 5452 5446 5442 5437 5433 5437 5445 5454 5468 5492 5503 5521 5528 5543
5546 5544 5542 5538 5535 5534 5535 5534 5536 5536 5541 5548 5553 5560 5560 5557 5552 5544 5542 5537 5532 5526 5521 5514 5506 5499 5490 5476 5485 5474 5464 5455 5445 5438 5435 5430 5426 5424 5424 5431 5434 5465 5481 5491 5506 5521 5531
5534 5529 5526 5521 5518 5518 5518 5519 5523 5527 5532 5537 5548 5551 5555 5549 5539 5537 5540 5531 5525 5518 5513 5507 5499 5491 5477 5477 5476 5465 5455 5445 5436 5433 5428 5427 5426 5418 5420 5420 5435 5449 5462 5482 5499 5515 5525
5518 5512 5507 5504 5503 5504 5506 5506 5512 5516 5522 5529 5539 5546 5547 5545 5540 5534 5532 5527 5519 5511 5508 5501 5492 5479 5476 5480 5469 5461 5449 5437 5433 5432 5430 5428 5424 5418 5413 5425 5431 5434 5449 5472 5507 5514 5522
5502 5498 5492 5488 5487 5488 5491 5497 5501 5504 5509 5516 5527 5537 5544 5539 5535 5526 5524 5521 5512 5506 5502 5495 5483 5478 5472 5476 5468 5462 5448 5439 5435 5431 5429 5427 5422 5416 5420 5425 5428 5442 5450 5471 5505 5517 5514
5491 5485 5480 5475 5472 5470 5471 5476 5482 5488 5494 5505 5516 5526 5540 5533 5527 5521 5515 5514 5508 5500 5494 5488 5482 5472 5476 5477 5469 5459 5448 5442 5439 5432 5428 5422 5419 5425 5427 5430 5438 5447 5457 5486 5505 5515 5521
5473 5465 5462 5457 5451 5449 5450 5455 5462 5471 5480 5492 5506 5513 5527 5527 5523 5515 5509 5506 5497 5490 5489 5486 5486 5484 5482 5479 5468 5460 5452 5445 5440 5434 5431 5427 5422 5431 5429 5435 5444 5450 5472 5495 5512 5520 5521
5456 5447 5440 5433 5430 5430 5433 5439 5447 5457 5466 5477 5493 5505 5514 5518 5517 5512 5504 5502 5505 5505 5491 5489 5490 5485 5483 5478 5467 5465 5458 5446 5440 5441 5440 5431 5440 5440 5447 5443 5448 5445 5473 5499 5513 5518 5525
5442 5431 5423 5418 5416 5412 5411 5415 5424 5438 5453 5464 5479 5495 5507 5510 5509 5509 5503 5503 5504 5501 5493 5495 5495 5491 5485 5477 5472 5470 5458 5448 5444 5439 5441 5441 5455 5451 5445 5452 5455 5451 5486 5507 5518 5519 5528
5425 5416 5410 5406 5404 5400 5395 5397 5404 5418 5439 5452 5469 5479 5499 5501 5499 5502 5500 5503 5500 5498 5452 5493 5495 5494 5487 5478 5473 5474 5464 5457 5450 5453 5455 5452 5452 5457 5450 5462 5469 5483 5505 5524 5526 5529 5532
5414 5406 5402 5400 5399 5395 5392 5393 5394 5403 5427 5444 5461 5476 5492 5496 5499 5500 5503 5502 5497 5493 5443 5498 5498 5498 5489 5483 5481 5482 5472 5463 5468 5468 5459 5472 5471 5459 5475 5486 5495 5508 5520 5528 5529 5538 5546
5406 5401 5399 5399 5400 5397 5393 5392 5389 5392 5416 5434 5455 5472 5487 5490 5496 5498 5501 5498 5494 5456 5448 5482 5499 5498 5497 5493 5491 5491 5482 5472 5477 5475 5470 5466 5468 5477 5490 5501 5507 5522 5521 5522 5528 5542 5543
5400 5398 5399 5400 5401 5399 5397 5393 5390 5391 5408 5429 5451 5480 5485 5489 5495 5496 5496 5489 5467 5447 5490 5493 5494 5501 5497 5496 5500 5495 5497 5494 5485 5487 5490 5487 5488 5496 5499 5513 5516 5523 5523 5517 5526 5532 5538
5393 5394 5399 5401 5403 5401 5397 5392 5388 5391 5410 5432 5457 5474 5481 5485 5492 5492 5488 5478 5458 5491 5482 5502 5502 5505 5496 5499 5505 5498 5495 5484 5491 5483 5483 5498 5511 5500 5509 5514 5518 5518 5526 5526 5532 5533 5530
5388 5392 5396 5402 5404 5404 5402 5396 5391 5400 5423 5441 5458 5473 5476 5482 5487 5488 5478 5453 5476 5484 5500 5498 5506 5506 5502 5504 5500 5503 5493 5488 5494 5491 5493 5507 5504 5508 5513 5516 5520 5524 5521 5535 5528 5522 5537
5381 5387 5396 5404 5408 5408 5407 5405 5411 5425 5438 5450 5465 5470 5475 5477 5481 5482 5467 5485 5481 5496 5505 5507 5512 5504 5508 5503 5508 5505 5494 5498 5495 5498 5500 5508 5514 5505 5516 5517 5527 5528 5534 5536 5527 5538 5533
5376 5390 5400 5407 5411 5413 5414 5422 5440 5451 5461 5463 5468 5468 5470 5474 5480 5474 5459 5476 5497 5506 5510 5517 5506 5501 5503 5508 5509 5499 5495 5508 5499 5504 5504 5505 5511 5513 5519 5510 5514 5527 5534 5529 5529 5525 5553
5393 5400 5408 5413 5419 5421 5431 5455 5474 5491 5487 5479 5472 5472 5469 5473 5472 5471 5482 5486 5510 5509 5511 5518 5517 5516 5515 5512 5505 5506 5505 5506 5509 5509 5513 5509 5500 5500 5510 5516 5520 5530 5532 5527 5533 5542 5504
5405 5411 5416 5419 5429 5448 5465 5485 5497 5501 5498 5491 5474 5474 5468 5476 5480 5482 5483 5504 5513 5513 5516 5522 5523 5523 5521 5517 5513 5510 5511 5518 5514 5517 5517 5521 5493 5483 5508 5521 5528 5526 5527 5519 5519 5519 5512
5417 5422 5429 5448 5473 5488 5490 5492 5496 5498 5499 5498 5484 5474 5469 5479 5482 5483 5492 5506 5511 5519 5519 5522 5524 5527 5526 5515 5509 5513 5514 5520 5519 5523 5526 5520 5494 5502 5489 5510 5513 5528 5526 5525 5520 5517 5529
5431 5438 5456 5486 5509 5514 5503 5496 5495 5497 5500 5503 5487 5483 5489 5484 5486 5488 5502 5511 5512 5519 5524 5524 5528 5529 5529 5523 5518 5515 5517 5521 5527 5522 5520 5517 5497 5483 5499 5512 5515 5525 5528 5528 5503 5526 5526
5443 5455 5478 5501 5510 5513 5504 5499 5500 5501 5505 5499 5492 5487 5483 5489 5503 5497 5508 5513 5517 5520 5525 5528 5527 5527 5529 5528 5530 5520 5520 5520 5521 5522 5517 5508 5489 5490 5498 5506 5511 5525 5522 5522 5525 5526 5527
5460 5467 5483 5493 5501 5502 5502 5500 5500 5501 5505 5495 5489 5491 5495 5500 5503 5509 5516 5514 5522 5523 5524 5529 5530 5525 5523 5525 5525 5522 5516 5511 5518 5526 5513 5509 5502 5495 5494 5501 5517 5514 5525 5523 5521 5520 5527
5472 5476 5484 5488 5494 5500 5499 5500 5500 5502 5504 5501 5494 5497 5494 5495 5505 5520 5513 5521 5522 5529 5528 5523 5531 5535 5527 5522 5520 5524 5517 5513 5514 5507 5511 5512 5504 5496 5483 5499 5493 5519 5515 5524 5526 5510 5513
5488 5491 5492 5494 5500 5501 5501 5503 5504 5505 5504 5503 5499 5503 5501 5505 5502 5511 5518 5517 5518 5518 5518 5521 5521 5522 5522 5527 5521 5520 5511 5532 5516 5506 5509 5511 5506 5499 5498 5487 5509 5527 5525 5527 5533 5507 5498
5502 5503 5506 5506 5508 5511 5507 5508 5508 5508 5510 5509 5502 5506 5512 5514 5507 5490 5514 5521 5515 5514 5515 5520 5524 5524 5525 5515 5520 5524 5511 5522 5521 5524 5516 5512 5505 5507 5487 5498 5525 5518 5523 5520 5522 5505 5497
5508 5511 5513 5518 5518 5520 5518 5511 5511 5512 5514 5513 5506 5512 5516 5497 5486 5495 5511 5519 5516 5515 5511 5519 5527 5531 5526 5516 5517 5505 5513 5515 5515 5518 5516 5503 5495 5498 5501 5486 5502 5510 5515 5515 5513 5504 5492
5513 5518 5524 5525 5523 5522 5522 5517 5514 5513 5516 5516 5508 5516 5517 5497 5491 5496 5500 5512 5517 5519 5522 5518 5523 5522 5515 5522 5516 5506 5504 5502 5507 5510 5508 5509 5494 5493 5484 5488 5488 5510 5509 5506 5493 5489 5483
5512 5521 5527 5528 5526 5524 5525 5523 5518 5517 5517 5517 5510 5515 5516 5510 5495 5499 5501 5504 5507 5512 5511 5506 5518 5517 5516 5510 5505 5500 5510 5490 5493 5509 5502 5504 5506 5503 5499 5503 5505 5504 5498 5486 5482 5475 5470